STARLINK-1475, 45739

Orbit data source: Space-Track

STARLINK-1475, 45739 is a payload satellite owned by SpaceX/Seattle (US) in LEO that was launched on Sat, 13 Jun 2020 UTC via an FALCON 9 launch vehicle from the Air Force Eastern Test Range (AFETR). Payload-class satellites include a variety of spacecraft equipped with specific instruments for various scientific and technological missions. These include communications satellites like Starlink; space stations such as the ISS; scientific satellites like the Hubble; Earth observation satellites from companies like Planet Labs, Umbra, and HawkEye 360; GPS; miniature CubeSats for education and research; and military/defense satellites.

Loading next visibility...
Identifier
45739, 2020-038K
Orbit
LEO
Country
Flag of USUS
Related business
Manufacturer
SpaceX/Seattle
Mission
Partially operational Commercial Communications
Bus & Motor
STARLINK, Unknown motor
Mass
260 kg wet, ~248 kg dry
Launch date (UTC)
2020-06-13 (5 years ago)
Launch vehicle
FALCON 9
Launch site
Air Force Eastern Test Range (AFETR)
Object type
Payload
Rocket body
Debris
Shape & HBR
Box + 1 Pan, 10.1 m
Radar Cross Section
13.562 m², Large (>1 m²)

Expand to show TLE details & history
Last TLE update: 18 hours ago

TLE from 18 hours ago
0 STARLINK-1475
1 45739U 20038K   25312.91667823  .00416384  00000-0  19082-2 0  9994
2 45739  53.0473 278.5302 0006851  57.7928 138.9581 15.82010935  6024
Epoch: 2025-11-08T22:00Z
TLE epoch observation values (Epoch: 2025-11-08T22:00:00.999Z)
Latitude
-13.5144°
Longitude
90.54376°
Altitude
331.846 km
Speed
7.708 km/s
True Right ascension
07h 15m 32s
True Declination
-13° 25' 54"
Sunlit
Object was in full shadow at epoch
Visualization orbit readout
Latitude
Unknown
Longitude
Unknown
Altitude
Unknown
Speed
Unknown
Apparent Right ascension
Unknown
Apparent Declination
Unknown
Sunlit
N/A
Visualization observer readout
Local Sidereal Time
11:48:08
Azimuth
Unknown
Elevation
Unknown
Doppler factor
Unknown
Orbital elements
Apogee altitude
329.627 km
Perigee altitude
320.443 km
Semi-major axis
6,703.172 km
Eccentricity
0.00069
Inclination
53.0473°
RAAN
278.5302°
Arg. of periapsis
57.7928°
True anomaly
139.00962°
Mean anomaly
138.9581°
Eccentric anomaly
138.98386°
Mean motion
3.95478 °/min
Orbital period
91.03 mins
BSTAR
0.0019082
Loading maneuver chart data...
Computing Atmospheric mass density...

Documentation

Showing up to 5 results
|